EHI
16 16 17 18 15 12 11 12 11 8 6 5 5 5 5 4 5 6 6 6 5 4 4 4 4 4 4 3 2 1 0 1 1 1 0 0 0 0 0 0 0 0 0
18 17 18 19 19 16 15 15 14 10 7 6 6 6 6 5 5 6 7 6 7 6 5 5 5 5 5 4 3 1 0 0 0 0 0 0 0 0 0 0 0 0 0
22 21 19 18 19 19 17 16 14 11 9 8 7 7 6 6 6 8 9 8 8 8 8 6 6 5 5 4 4 2 1 0 0 0 0 0 0 0 0 0 0 0 0
25 23 19 16 16 16 15 14 12 10 9 9 9 7 7 6 7 10 11 10 9 10 10 8 6 5 4 3 3 3 2 1 0 0 0 0 0 0 0 0 0 0 0
26 25 21 17 15 13 12 12 11 10 9 9 10 10 9 8 8 11 12 11 11 12 11 10 7 4 3 3 3 3 3 2 1 1 0 0 0 0 0 0 0 0 0
27 26 24 22 19 15 14 13 12 11 10 9 10 12 12 10 10 10 10 10 11 12 12 11 8 5 3 3 3 3 3 3 3 2 1 1 0 0 0 0 0 0 0
25 25 25 26 24 22 20 18 15 13 12 11 12 15 15 12 9 8 8 8 9 9 10 9 7 6 4 3 3 2 2 3 3 3 3 2 1 0 0 0 0 0 0
23 22 24 27 28 27 26 23 18 15 15 15 15 16 16 13 8 5 4 5 6 7 7 7 7 6 5 4 3 3 3 3 3 3 2 2 1 0 0 0 0 0 0
21 20 21 25 27 28 27 24 21 18 16 17 16 15 15 12 7 3 2 2 4 5 5 6 6 6 6 4 3 3 3 3 3 2 1 1 0 0 0 0 0 1 1
21 20 21 22 25 26 24 21 21 19 17 16 13 12 12 10 6 3 1 2 4 4 4 5 6 5 4 3 3 3 3 3 3 2 1 1 0 0 0 0 0 0 0
23 23 23 23 24 24 23 21 21 19 17 15 13 11 10 8 5 3 1 2 4 4 4 5 5 3 2 1 1 2 2 3 3 3 3 2 1 0 1 1 1 0 0
28 27 26 25 24 22 22 23 23 21 18 16 15 13 9 7 6 3 1 1 2 4 4 4 3 2 0 0 0 1 1 1 2 3 3 3 2 1 1 2 2 1 0
30 29 26 25 23 22 21 23 24 23 20 18 17 15 11 8 6 3 1 0 0 2 2 2 1 1 0 0 0 0 0 0 1 2 3 3 3 2 2 3 3 2 1
30 27 25 23 21 20 20 21 23 23 21 19 18 17 14 9 5 3 1 1 0 0 0 0 0 0 0 0 0 0 0 0 0 1 2 4 4 3 3 3 3 3 2
25 25 23 22 21 19 19 19 18 17 17 16 15 16 14 9 5 3 2 2 1 0 0 0 0 0 0 1 2 1 1 1 0 0 2 4 4 5 4 3 2 2 1
18 19 20 21 21 19 17 16 13 10 8 8 8 10 9 6 3 1 1 2 1 0 0 0 0 0 0 2 3 3 2 2 1 1 2 3 3 3 3 1 1 1 0
12 14 17 18 18 17 15 14 11 7 3 1 2 3 3 3 1 0 0 1 1 0 1 1 1 1 1 2 3 3 2 2 2 2 2 2 1 1 1 0 0 0 0
11 12 15 16 15 14 14 13 12 9 4 1 0 1 1 1 0 0 0 0 0 1 2 2 2 2 2 2 2 1 1 1 1 1 1 1 0 0 0 0 0 0 0
11 12 13 15 15 13 13 13 13 12 8 3 1 0 0 0 0 0 0 1 1 1 3 3 3 2 2 1 1 0 0 0 0 0 0 0 0 0 0 0 0 0 0
11 11 12 14 14 13 13 13 13 12 8 4 1 0 0 0 0 0 0 1 2 2 2 2 1 1 1 0 0 0 0 0 0 0 0 0 0 0 0 0 0 0 0
9 9 11 12 12 12 13 13 13 11 7 4 2 0 0 0 0 0 0 1 1 1 1 1 0 0 0 0 0 0 0 0 0 0 0 0 0 0 0 0 0 0 0
8 9 10 10 10 11 11 12 11 10 7 5 2 0 0 0 0 0 0 0 0 0 0 0 0 0 0 0 0 0 0 0 0 0 0 0 0 0 0 0 0 0 0
7 8 9 9 8 8 9 9 10 9 7 4 1 0 0 0 0 0 0 0 0 0 0 0 0 0 0 0 0 0 0 0 0 0 0 0 0 0 0 0 0 0 0
7 7 7 7 7 7 7 8 9 8 6 4 1 0 0 0 0 0 0 0 0 0 0 0 0 0 0 0 0 0 0 0 0 0 0 0 0 0 0 0 0 0 0
6 6 6 6 6 6 6 7 8 8 6 3 1 0 0 0 0 0 0 0 0 0 0 0 0 0 0 0 0 0 0 0 0 0 0 0 0 0 0 0 0 0 0
4 5 6 6 6 6 6 7 8 7 6 4 2 1 0 0 0 0 0 0 0 0 0 0 0 0 0 0 0 0 0 0 0 0 0 0 0 0 0 0 0 0 0
Wind_Speed
6 5 4 4 4 4 4 4 4 3 4 4 3 3 3 2 3 3 2 2 2 1 1 2 2 1 1 1 1 2 2 3 3 1 0 1 2 2 2 1 1 1 1
6 5 5 4 4 4 4 4 4 4 4 4 3 3 3 2 2 3 3 3 3 2 2 2 2 1 1 1 1 2 2 2 4 3 1 1 1 2 2 2 2 2 1
6 5 5 4 4 5 5 4 4 4 3 3 3 4 3 3 3 3 3 3 3 3 3 3 3 2 2 2 2 2 2 2 2 3 2 1 1 2 2 2 2 1 1
6 6 6 5 5 5 5 4 4 4 4 4 4 4 4 3 3 3 3 3 3 3 3 3 3 3 3 3 2 3 3 3 3 3 3 2 1 1 2 2 1 0 1
6 6 6 5 5 4 4 4 4 4 5 4 4 3 3 3 4 4 4 4 3 3 2 2 2 3 4 4 3 3 4 3 3 3 3 2 2 2 3 2 2 1 1
6 6 6 5 5 4 4 4 4 4 4 4 4 4 4 4 4 6 5 4 3 4 3 2 2 2 3 3 4 5 6 6 6 4 3 4 4 4 3 3 3 2 2
6 5 5 5 5 5 5 4 5 4 4 4 5 4 4 5 6 6 7 5 4 4 4 3 3 2 3 2 3 3 3 5 8 6 6 5 5 5 5 4 4 4 3
5 4 4 4 5 5 4 5 5 4 4 4 5 5 4 5 6 7 7 5 3 4 4 5 4 3 3 4 4 2 2 3 5 5 6 6 5 5 7 6 5 3 1
5 5 5 5 4 4 4 5 4 4 4 4 4 5 5 5 6 7 7 4 3 3 3 4 5 5 6 6 5 4 2 2 2 4 5 5 6 6 5 3 3 3 1
6 6 5 5 5 5 5 4 3 4 5 4 4 4 5 5 6 7 7 4 3 3 2 3 5 6 7 8 6 5 4 3 2 2 2 2 3 4 6 6 5 4 2
5 4 4 4 4 5 4 3 3 3 3 3 4 4 4 5 6 8 8 4 5 4 3 3 3 6 7 8 7 6 7 5 3 3 2 2 2 2 3 4 4 5 4
3 3 3 3 4 3 3 3 3 3 3 3 2 3 3 3 5 6 9 8 6 4 4 3 3 5 6 7 6 6 7 5 3 3 3 3 3 3 3 4 4 4 5
3 3 3 3 3 3 4 4 3 3 3 3 3 3 3 3 3 6 8 8 8 4 3 5 5 6 5 5 7 8 6 4 3 4 4 5 5 5 4 3 3 2 2
4 3 3 3 3 3 3 3 4 4 5 4 5 5 4 4 3 3 4 4 5 3 2 2 3 5 4 4 4 4 4 4 5 5 4 4 3 3 3 3 3 3 2
4 3 3 3 4 3 3 4 5 5 6 7 6 5 5 5 6 8 7 5 5 5 3 1 1 1 2 2 2 3 3 3 4 3 3 3 3 3 3 3 3 3 3
3 3 3 3 3 3 3 3 4 4 5 7 7 7 6 7 7 8 10 9 9 8 5 3 3 4 4 4 4 4 3 4 4 4 4 4 4 4 3 2 3 3 4
4 4 3 3 3 3 3 3 3 3 3 5 7 8 7 7 7 7 8 8 8 9 5 4 5 5 5 5 5 4 4 4 4 4 4 4 4 4 3 3 3 3 4
3 4 3 3 3 3 3 3 3 3 3 3 3 6 7 7 8 7 7 6 3 5 5 5 5 5 5 5 5 4 4 3 3 4 4 4 4 4 4 4 4 5 4
3 2 3 3 3 3 3 3 3 3 3 2 1 1 3 4 4 5 7 5 5 5 5 5 5 5 5 5 4 4 4 4 4 4 4 4 4 4 4 4 4 5 5
3 5 4 2 2 2 3 3 3 3 3 3 3 3 2 2 2 3 4 4 4 5 5 5 5 4 4 4 4 4 4 4 4 4 4 4 4 4 5 5 4 4 4
2 3 4 2 2 3 3 3 4 3 3 3 4 4 6 4 5 5 5 4 5 5 5 5 4 4 4 4 4 4 4 4 4 4 4 4 4 4 4 4 5 5 4
2 2 2 2 2 2 3 3 3 3 4 4 3 3 6 4 4 4 4 5 5 5 5 5 4 4 4 4 4 4 4 4 4 4 3 4 4 4 4 4 4 4 4
2 2 2 2 2 2 3 3 3 3 3 3 3 3 3 3 4 4 4 4 4 4 4 4 4 4 4 4 5 5 5 5 5 5 5 4 4 4 4 5 6 5 5
2 2 2 2 2 2 2 2 2 2 3 3 3 3 3 3 3 4 4 4 4 4 4 4 5 6 6 4 4 4 5 5 5 5 6 5 5 5 5 5 5 6 6
2 2 2 2 2 2 2 2 1 2 2 2 2 2 2 3 3 3 3 3 3 3 4 4 3 4 6 6 5 5 5 6 5 4 5 5 5 5 5 6 5 5 5
2 2 2 2 2 2 2 1 1 1 1 2 1 1 2 2 2 3 2 2 3 3 2 3 3 4 4 4 4 4 4 4 5 5 4 4 5 5 5 4 5 5 5
Wind_Direction
177 176 168 171 174 170 171 179 182 178 171 171 172 173 172 174 171 168 182 172 171 188 191 169 193 178 155 152 154 153 156 148 153 190 184 133 122 131 127 116 127 138 150
176 169 169 166 164 169 178 184 179 177 175 173 171 175 184 180 174 174 187 185 175 183 195 175 197 173 161 170 155 154 161 158 152 162 172 129 124 153 149 143 130 122 121
170 165 170 175 176 182 187 185 179 178 181 176 171 183 195 192 183 184 182 184 183 185 183 182 197 172 184 186 170 166 169 160 146 151 164 156 129 147 128 129 114 92 146
168 167 174 185 189 192 188 182 182 183 183 187 188 192 197 197 192 189 183 182 179 183 182 186 193 185 190 183 176 177 162 148 142 143 148 155 151 155 139 142 126 161 212
168 172 185 188 190 188 187 187 187 190 194 195 192 195 200 198 200 190 186 181 177 179 185 191 193 178 180 180 175 175 166 160 154 155 162 157 165 169 183 180 174 179 279
169 180 185 183 185 188 192 191 189 197 197 193 198 200 204 211 199 192 184 183 178 181 192 197 188 171 166 168 172 174 172 170 172 171 179 183 196 192 183 178 165 160 236
176 182 183 184 187 196 198 194 198 202 199 200 206 202 209 214 202 193 187 184 185 190 192 193 203 191 172 167 159 161 173 178 176 175 180 197 194 193 178 181 184 185 210
172 182 187 187 195 197 198 206 207 202 201 205 208 207 212 221 204 191 184 187 194 201 198 194 191 194 188 168 159 160 183 197 197 187 190 201 198 190 185 187 191 185 218
179 185 188 189 190 194 207 217 216 206 209 211 206 201 207 224 209 193 179 178 192 212 212 201 190 193 199 177 163 170 183 220 207 186 187 190 189 187 175 151 156 157 212
197 199 194 190 193 202 213 217 214 206 212 207 206 203 202 215 208 195 182 177 190 208 217 216 204 198 198 184 177 176 190 211 190 181 184 196 196 191 181 178 177 176 185
200 193 194 198 204 211 210 212 209 203 201 207 210 216 214 217 210 197 187 186 197 199 205 217 220 201 199 194 189 193 201 191 185 188 197 199 195 202 207 204 191 184 189
179 187 200 208 216 217 206 217 214 198 198 213 218 233 235 226 210 202 195 198 198 197 207 209 210 202 201 198 200 205 198 183 176 181 197 209 208 211 215 210 208 209 209
170 194 214 221 221 211 206 215 214 202 199 210 209 219 229 227 214 197 194 200 202 205 214 207 207 205 206 207 208 202 195 187 185 195 211 219 214 209 200 199 211 217 235
182 205 216 219 232 232 219 212 211 210 208 207 211 216 220 216 213 199 193 196 198 200 196 200 209 211 208 210 207 200 198 196 193 204 216 221 207 197 199 192 195 198 209
195 207 220 225 228 232 231 227 226 226 216 209 213 208 205 219 220 202 191 196 198 196 170 146 150 179 213 227 224 215 204 195 203 208 210 215 210 203 208 198 187 186 202
199 212 221 228 229 229 234 269 268 253 248 236 227 213 218 220 209 206 205 202 196 176 160 181 200 207 214 216 217 222 218 212 209 204 206 207 211 211 210 201 189 193 208
204 216 227 227 224 225 224 227 262 293 271 247 238 226 219 211 205 206 206 201 189 169 181 205 209 212 218 218 216 214 218 219 209 205 210 211 212 210 203 205 205 207 217
217 225 230 229 226 225 225 227 228 231 255 276 267 239 227 215 208 201 183 160 181 193 208 212 216 216 215 216 215 215 219 218 211 211 211 210 206 206 208 208 208 211 218
223 232 229 227 225 224 225 227 232 231 237 242 263 276 222 202 193 187 167 180 199 210 216 218 219 217 217 218 215 211 209 210 211 207 208 209 205 202 209 213 212 215 215
226 236 234 224 224 226 225 225 231 230 226 217 221 219 175 154 180 192 196 207 209 215 221 223 224 220 214 212 208 206 207 208 205 205 210 211 208 204 209 212 211 212 217
233 239 239 230 227 231 231 229 225 220 221 217 222 214 190 194 203 202 201 206 210 215 219 222 225 223 215 206 201 204 207 212 211 211 214 214 209 211 212 213 216 215 215
224 231 227 228 227 232 238 230 220 219 218 214 222 217 208 209 203 202 205 209 212 218 217 211 215 218 212 205 200 201 209 214 216 214 220 221 217 215 215 218 220 217 216
225 225 225 230 228 236 241 237 224 214 216 221 210 204 205 215 215 211 212 215 212 215 215 208 209 218 217 209 203 199 205 214 216 210 213 220 221 219 219 221 220 219 220
234 228 226 232 237 241 244 241 228 214 211 216 220 215 215 221 225 226 222 221 216 215 215 210 211 214 213 214 212 210 211 213 209 208 209 214 220 223 221 223 224 221 221
241 241 238 239 243 245 244 236 225 220 218 223 223 219 226 228 232 234 230 226 224 226 227 219 214 211 213 215 217 215 213 210 212 212 211 211 218 221 220 222 227 226 223
238 238 242 242 239 240 228 219 224 224 230 242 236 216 219 232 239 239 232 225 223 223 224 219 215 212 214 217 217 215 210 209 213 218 221 216 215 219 220 224 225 224 219